Time,TemperatureF,DewpointF,PressureIn,WindDirection,WindDirectionDegrees,WindSpeedMPH,WindSpeedGustMPH,Humidity,HourlyPrecipIn,Conditions,Clouds,dailyrainin,SoftwareType,DateUTC
2013-04-21 02:02:00,51.0,-99.9,-100.00,SW,222,0.0,0.0,-999,-99.99,,,-99.99,,2013-04-21 09:02:00,
2013-04-21 02:12:00,51.0,-99.9,-100.00,SW,222,0.0,0.0,-999,-99.99,,,-99.99,,2013-04-21 09:12:00,
2013-04-21 02:22:00,49.0,-99.9,-100.00,South,188,0.0,0.0,-999,-99.99,,,-99.99,,2013-04-21 09:22:00,
2013-04-21 02:33:00,49.0,-99.9,-100.00,South,188,0.0,0.0,-999,-99.99,,,-99.99,,2013-04-21 09:33:00,
2013-04-21 03:03:00,48.0,-99.9,-100.00,West,272,0.0,0.0,-999,-99.99,,,-99.99,,2013-04-21 10:03:00,
2013-04-21 03:12:00,48.0,-99.9,-100.00,West,272,0.0,0.0,-999,-99.99,,,-99.99,,2013-04-21 10:12:00,
2013-04-21 03:22:00,49.0,-99.9,-100.00,SSW,206,0.0,0.0,-999,-99.99,,,-99.99,,2013-04-21 10:22:00,
2013-04-21 03:33:00,49.0,-99.9,-100.00,SSW,206,0.0,0.0,-999,-99.99,,,-99.99,,2013-04-21 10:33:00,
2013-04-21 03:42:00,49.0,-99.9,-100.00,SSW,206,0.0,0.0,-999,-99.99,,,-99.99,,2013-04-21 10:42:00,
2013-04-21 04:20:00,48.0,-99.9,-100.00,SW,215,0.0,0.0,-999,-99.99,,,-99.99,,2013-04-21 11:20:00,
2013-04-21 05:03:00,48.0,-99.9,-100.00,SW,215,0.0,0.0,-999,-99.99,,,-99.99,,2013-04-21 12:03:00,
2013-04-21 05:12:00,48.0,-99.9,-100.00,SW,215,0.0,0.0,-999,-99.99,,,-99.99,,2013-04-21 12:12:00,
2013-04-21 06:02:00,42.0,-99.9,-100.00,SSE,167,0.0,0.0,-999,-99.99,,,-99.99,,2013-04-21 13:02:00,
2013-04-21 06:12:00,42.0,-99.9,-100.00,SSE,167,0.0,0.0,-999,-99.99,,,-99.99,,2013-04-21 13:12:00,
2013-04-21 09:03:00,65.0,-99.9,-100.00,NNW,328,0.0,0.0,-999,-99.99,,,-99.99,,2013-04-21 16:03:00,
2013-04-21 09:23:00,67.0,-99.9,-100.00,SW,216,0.0,0.0,-999,-99.99,,,-99.99,,2013-04-21 16:23:00,
2013-04-21 09:33:00,70.0,-99.9,-100.00,SW,217,0.0,0.0,-999,-99.99,,,-99.99,,2013-04-21 16:33:00,
2013-04-21 10:53:00,76.0,-99.9,-100.00,SW,229,0.0,0.0,-999,-99.99,,,-99.99,,2013-04-21 17:53:00,
2013-04-21 11:02:00,77.0,-99.9,-100.00,SSW,212,0.0,0.0,-999,-99.99,,,-99.99,,2013-04-21 18:02:00,
2013-04-21 11:22:00,76.0,-99.9,-100.00,SW,219,0.0,0.0,-999,-99.99,,,-99.99,,2013-04-21 18:22:00,
2013-04-21 11:33:00,76.0,-99.9,-100.00,SW,219,0.0,0.0,-999,-99.99,,,-99.99,,2013-04-21 18:33:00,
2013-04-21 14:20:00,81.0,-99.9,-100.00,SW,218,0.0,0.0,-999,-99.99,,,-99.99,,2013-04-21 21:20:00,
2013-04-21 14:22:00,80.0,-99.9,-100.00,SW,234,0.0,0.0,-999,-99.99,,,-99.99,,2013-04-21 21:22:00,
2013-04-21 14:33:00,80.0,-99.9,-100.00,SW,234,0.0,0.0,-999,-99.99,,,-99.99,,2013-04-21 21:33:00,
2013-04-21 15:03:00,81.0,-99.9,-100.00,SW,218,0.0,0.0,-999,-99.99,,,-99.99,,2013-04-21 22:03:00,
2013-04-21 15:12:00,81.0,-99.9,-100.00,SW,218,0.0,0.0,-999,-99.99,,,-99.99,,2013-04-21 22:12:00,
2013-04-21 16:52:00,78.0,-99.9,-100.00,SW,219,0.0,0.0,-999,-99.99,,,-99.99,,2013-04-21 23:52:00,
2013-04-21 17:02:00,78.0,-99.9,-100.00,SW,219,0.0,0.0,-999,-99.99,,,-99.99,,2013-04-22 00:02:00,
2013-04-21 18:02:00,75.0,-99.9,-100.00,WSW,248,0.0,0.0,-999,-99.99,,,-99.99,,2013-04-22 01:02:00,
2013-04-21 18:12:00,75.0,-99.9,-100.00,WSW,248,0.0,0.0,-999,-99.99,,,-99.99,,2013-04-22 01:12:00,
2013-04-21 19:32:00,69.0,-99.9,-100.00,ESE,111,0.0,0.0,-999,-99.99,,,-99.99,,2013-04-22 02:32:00,
2013-04-21 19:40:00,65.0,-99.9,-100.00,SW,215,0.0,0.0,-999,-99.99,,,-99.99,,2013-04-22 02:40:00,
2013-04-21 19:42:00,69.0,-99.9,-100.00,ESE,111,0.0,0.0,-999,-99.99,,,-99.99,,2013-04-22 02:42:00,
2013-04-21 20:22:00,65.0,-99.9,-100.00,SW,215,0.0,0.0,-999,-99.99,,,-99.99,,2013-04-22 03:22:00,
2013-04-21 20:33:00,65.0,-99.9,-100.00,SW,215,0.0,0.0,-999,-99.99,,,-99.99,,2013-04-22 03:33:00,
2013-04-21 23:20:00,54.0,-99.9,-100.00,SW,216,0.0,0.0,-999,-99.99,,,-99.99,,2013-04-22 06:20:00,
2013-04-21 23:22:00,55.0,-99.9,-100.00,WSW,237,0.0,0.0,-999,-99.99,,,-99.99,,2013-04-22 06:22:00,
2013-04-21 23:32:00,55.0,-99.9,-100.00,WSW,237,0.0,0.0,-999,-99.99,,,-99.99,,2013-04-22 06:32:00,
2013-04-21 23:42:00,55.0,-99.9,-100.00,WSW,237,0.0,0.0,-999,-99.99,,,-99.99,,2013-04-22 06:42:00,